| time (UTC) | temp F | wind direction | speed MPH | gust MPH | rain 1hr in | rain 24hr in | rain mn in | humidity % | barometer mb |
| 20260504233024 | 70 | 180 | 8.0 | 10.0 | 0.00 | 0.00 | 0.00 | 58 | 1005.4 |
| 20260504232504 | 70 | 200 | 8.0 | 10.0 | 0.00 | 0.00 | 0.00 | 59 | 1005.4 |
| 20260504232004 | 70 | 193 | 8.0 | 12.0 | 0.00 | 0.00 | 0.00 | 56 | 1005.5 |
| 20260504231510 | 70 | 205 | 10.0 | 14.0 | 0.00 | 0.00 | 0.00 | 56 | 1005.7 |
| 20260504231004 | 70 | 208 | 11.0 | 17.0 | 0.00 | 0.00 | 0.00 | 54 | 1005.7 |
| 20260504230504 | 71 | 207 | 9.0 | 17.0 | 0.00 | 0.00 | 0.00 | 53 | 1005.8 |
| 20260504230014 | 71 | 212 | 14.0 | 20.0 | 0.00 | 0.00 | 0.00 | 52 | 1005.9 |
| 20260504225506 | 71 | 202 | 11.0 | 20.0 | 0.00 | 0.00 | 0.00 | 52 | 1005.9 |
| 20260504225009 | 71 | 211 | 10.0 | 16.0 | 0.00 | 0.00 | 0.00 | 54 | 1005.9 |
| 20260504224519 | 71 | 201 | 10.0 | 13.0 | 0.00 | 0.00 | 0.00 | 53 | 1005.9 |
| 20260504224005 | 71 | 207 | 8.0 | 12.0 | 0.00 | 0.00 | 0.00 | 54 | 1006.0 |
| 20260504223509 | 71 | 221 | 8.0 | 20.0 | 0.00 | 0.00 | 0.00 | 53 | 1006.1 |
| 20260504223015 | 70 | 214 | 8.0 | 20.0 | 0.00 | 0.00 | 0.00 | 53 | 1006.0 |
| 20260504222507 | 71 | 226 | 10.0 | 20.0 | 0.00 | 0.00 | 0.00 | 53 | 1006.0 |
| 20260504222012 | 71 | 211 | 12.0 | 18.0 | 0.00 | 0.00 | 0.00 | 51 | 1006.0 |
| 20260504221511 | 72 | 226 | 12.0 | 22.0 | 0.00 | 0.00 | 0.00 | 50 | 1006.2 |
| 20260504221007 | 72 | 199 | 10.0 | 22.0 | 0.00 | 0.00 | 0.00 | 50 | 1006.4 |
| 20260504220506 | 72 | 202 | 13.0 | 26.0 | 0.00 | 0.00 | 0.00 | 50 | 1006.4 |
| 20260504220016 | 72 | 257 | 16.0 | 25.0 | 0.00 | 0.00 | 0.00 | 50 | 1006.4 |
| 20260504215505 | 71 | 229 | 12.0 | 21.0 | 0.00 | 0.00 | 0.00 | 52 | 1006.4 |
| 20260504215004 | 70 | 215 | 14.0 | 20.0 | 0.00 | 0.00 | 0.00 | 52 | 1006.3 |
| 20260504214521 | 71 | 227 | 14.0 | 22.0 | 0.00 | 0.00 | 0.00 | 52 | 1006.3 |
| 20260504214005 | 72 | 253 | 12.0 | 22.0 | 0.00 | 0.00 | 0.00 | 52 | 1006.3 |
| 20260504213506 | 72 | 227 | 14.0 | 20.0 | 0.00 | 0.00 | 0.00 | 53 | 1006.3 |
| 20260504213026 | 71 | 228 | 16.0 | 20.0 | 0.00 | 0.00 | 0.00 | 53 | 1006.4 |
| 20260504212511 | 71 | 240 | 13.0 | 21.0 | 0.00 | 0.00 | 0.00 | 57 | 1006.4 |
| 20260504212007 | 70 | 197 | 16.0 | 20.0 | 0.00 | 0.00 | 0.00 | 55 | 1006.1 |
| 20260504211527 | 71 | 210 | 12.0 | 24.0 | 0.00 | 0.00 | 0.00 | 55 | 1006.4 |
| 20260504211006 | 70 | 226 | 15.0 | 24.0 | 0.00 | 0.00 | 0.00 | 55 | 1006.8 |
| 20260504210503 | 70 | 239 | 14.0 | 22.0 | 0.00 | 0.00 | 0.00 | 56 | 1006.8 |
| 20260504210017 | 70 | 246 | 14.0 | 22.0 | 0.00 | 0.00 | 0.00 | 56 | 1006.9 |
| 20260504205503 | 70 | 252 | 12.0 | 19.0 | 0.00 | 0.00 | 0.00 | 57 | 1006.9 |
| 20260504205003 | 69 | 226 | 14.0 | 18.0 | 0.00 | 0.00 | 0.00 | 58 | 1007.1 |
| 20260504204521 | 68 | 205 | 10.0 | 18.0 | 0.00 | 0.00 | 0.00 | 63 | 1007.2 |
| 20260504204008 | 67 | 226 | 11.0 | 18.0 | 0.00 | 0.00 | 0.00 | 63 | 1007.2 |
| 20260504203510 | 67 | 190 | 9.0 | 18.0 | 0.00 | 0.00 | 0.00 | 66 | 1007.3 |
| 20260504203012 | 66 | 219 | 9.0 | 17.0 | 0.00 | 0.00 | 0.00 | 68 | 1007.2 |
| 20260504202506 | 65 | 200 | 10.0 | 14.0 | 0.00 | 0.00 | 0.00 | 67 | 1007.2 |
| 20260504202006 | 65 | 202 | 10.0 | 14.0 | 0.00 | 0.00 | 0.00 | 68 | 1007.2 |
| 20260504201525 | 65 | 205 | 9.0 | 13.0 | 0.00 | 0.00 | 0.00 | 69 | 1007.3 |
| 20260504201004 | 64 | 216 | 7.0 | 13.0 | 0.00 | 0.00 | 0.00 | 68 | 1007.0 |
| 20260504200508 | 64 | 227 | 9.0 | 12.0 | 0.00 | 0.00 | 0.00 | 68 | 1007.4 |
| 20260504200026 | 64 | 198 | 8.0 | 12.0 | 0.00 | 0.00 | 0.00 | 70 | 1007.5 |
| 20260504195504 | 63 | 240 | 9.0 | 13.0 | 0.00 | 0.00 | 0.00 | 70 | 1008.0 |
| 20260504195007 | 63 | 230 | 10.0 | 17.0 | 0.00 | 0.00 | 0.00 | 70 | 1008.0 |
| 20260504194508 | 63 | 238 | 10.0 | 19.0 | 0.00 | 0.00 | 0.00 | 69 | 1008.1 |
| 20260504194003 | 64 | 246 | 7.0 | 24.0 | 0.00 | 0.00 | 0.00 | 69 | 1008.6 |
| 20260504193508 | 66 | 235 | 14.0 | 28.0 | 0.00 | 0.00 | 0.00 | 63 | 1009.0 |
| 20260504193003 | 66 | 251 | 16.0 | 28.0 | 0.00 | 0.00 | 0.00 | 61 | 1009.1 |
| 20260504192502 | 67 | 232 | 15.0 | 24.0 | 0.00 | 0.00 | 0.00 | 60 | 1009.0 |
| 20260504192003 | 67 | 227 | 15.0 | 22.0 | 0.00 | 0.00 | 0.00 | 59 | 1008.8 |
| 20260504191504 | 68 | 241 | 16.0 | 22.0 | 0.00 | 0.00 | 0.00 | 59 | 1008.7 |
| 20260504191003 | 68 | 234 | 15.0 | 25.0 | 0.00 | 0.00 | 0.00 | 59 | 1008.6 |
| 20260504190506 | 68 | 242 | 13.0 | 24.0 | 0.00 | 0.00 | 0.00 | 59 | 1008.5 |
| 20260504190006 | 68 | 223 | 12.0 | 21.0 | 0.00 | 0.00 | 0.00 | 59 | 1008.3 |
| 20260504185502 | 69 | 211 | 15.0 | 23.0 | 0.00 | 0.00 | 0.00 | 56 | 1008.0 |
| 20260504185006 | 69 | 206 | 14.0 | 23.0 | 0.00 | 0.00 | 0.00 | 56 | 1008.1 |
| 20260504184516 | 69 | 186 | 14.0 | 20.0 | 0.00 | 0.00 | 0.00 | 56 | 1008.2 |
| 20260504184002 | 69 | 232 | 14.0 | 23.0 | 0.00 | 0.00 | 0.00 | 58 | 1008.0 |
| 20260504183503 | 69 | 219 | 16.0 | 24.0 | 0.00 | 0.00 | 0.00 | 55 | 1007.8 |
| 20260504183012 | 70 | 224 | 13.0 | 24.0 | 0.00 | 0.00 | 0.00 | 55 | 1007.6 |
| 20260504182503 | 69 | 217 | 16.0 | 23.0 | 0.00 | 0.00 | 0.00 | 55 | 1007.8 |
| 20260504182003 | 69 | 210 | 14.0 | 24.0 | 0.00 | 0.00 | 0.00 | 56 | 1007.7 |
| 20260504181503 | 68 | 205 | 15.0 | 24.0 | 0.00 | 0.00 | 0.00 | 58 | 1007.8 |
| 20260504181003 | 68 | 207 | 16.0 | 22.0 | 0.00 | 0.00 | 0.00 | 57 | 1007.8 |
| 20260504180503 | 68 | 213 | 11.0 | 20.0 | 0.00 | 0.00 | 0.00 | 56 | 1007.8 |
| 20260504180006 | 68 | 218 | 16.0 | 22.0 | 0.00 | 0.00 | 0.00 | 55 | 1007.9 |
| 20260504175502 | 68 | 218 | 15.0 | 22.0 | 0.00 | 0.00 | 0.00 | 55 | 1008.0 |
| 20260504175003 | 68 | 213 | 15.0 | 26.0 | 0.00 | 0.00 | 0.00 | 56 | 1008.0 |
| 20260504174504 | 68 | 203 | 17.0 | 25.0 | 0.00 | 0.00 | 0.00 | 58 | 1008.1 |
| 20260504174004 | 68 | 207 | 12.0 | 22.0 | 0.00 | 0.00 | 0.00 | 57 | 1008.1 |
| 20260504173504 | 67 | 200 | 17.0 | 22.0 | 0.00 | 0.00 | 0.00 | 56 | 1008.0 |
| 20260504173015 | 67 | 222 | 14.0 | 24.0 | 0.00 | 0.00 | 0.00 | 57 | 1008.0 |
| 20260504172502 | 67 | 207 | 14.0 | 24.0 | 0.00 | 0.00 | 0.00 | 56 | 1008.1 |
| 20260504172003 | 66 | 219 | 12.0 | 20.0 | 0.00 | 0.00 | 0.00 | 58 | 1008.1 |
| 20260504171519 | 66 | 225 | 14.0 | 20.0 | 0.00 | 0.00 | 0.00 | 58 | 1008.2 |
| 20260504171004 | 66 | 219 | 14.0 | 22.0 | 0.00 | 0.00 | 0.00 | 56 | 1008.2 |
| 20260504170502 | 67 | 231 | 16.0 | 22.0 | 0.00 | 0.00 | 0.00 | 56 | 1008.2 |
| 20260504151009 | 62 | 227 | 14.0 | 18.0 | 0.00 | 0.00 | 0.00 | 64 | 1008.9 |
| 20260504150504 | 61 | 211 | 11.0 | 18.0 | 0.00 | 0.00 | 0.00 | 65 | 1008.8 |
| 20260504141002 | 58 | 218 | 16.0 | 28.0 | 0.00 | 0.00 | 0.00 | 66 | 1009.2 |
| 20260504140507 | 58 | 217 | 18.0 | 28.0 | 0.00 | 0.00 | 0.00 | 66 | 1009.2 |
| 20260504130508 | 55 | 194 | 12.0 | 20.0 | 0.00 | 0.00 | 0.00 | 69 | 1009.6 |
| 20260504110507 | 49 | 216 | 9.0 | 13.0 | 0.00 | 0.00 | 0.00 | 71 | 1009.3 |
| 20260504100507 | 48 | 215 | 8.0 | 12.0 | 0.00 | 0.00 | 0.00 | 70 | 1009.5 |
| 20260504082003 | 49 | 196 | 10.0 | 13.0 | 0.00 | 0.00 | 0.00 | 68 | 1010.2 |
| 20260504081507 | 49 | 196 | 10.0 | 15.0 | 0.00 | 0.00 | 0.00 | 68 | 1010.2 |
| 20260504081002 | 49 | 203 | 10.0 | 15.0 | 0.00 | 0.00 | 0.00 | 68 | 1010.2 |
| 20260504080504 | 49 | 207 | 10.0 | 14.0 | 0.00 | 0.00 | 0.00 | 68 | 1010.2 |
| 20260504050505 | 51 | 192 | 9.0 | 14.0 | 0.00 | 0.00 | 0.00 | 64 | 1012.0 |
| 20260504050013 | 52 | 198 | 8.0 | 14.0 | 0.00 | 0.00 | 0.00 | 63 | 1012.1 |
| 20260504045502 | 52 | 198 | 9.0 | 13.0 | 0.00 | 0.00 | 0.00 | 63 | 1012.1 |
| 20260504045002 | 52 | 200 | 9.0 | 12.0 | 0.00 | 0.00 | 0.00 | 63 | 1012.1 |
| 20260504044512 | 52 | 202 | 10.0 | 13.0 | 0.00 | 0.00 | 0.00 | 62 | 1012.2 |
| 20260504044003 | 52 | 200 | 10.0 | 13.0 | 0.00 | 0.00 | 0.00 | 62 | 1012.2 |
| 20260504043504 | 52 | 197 | 10.0 | 13.0 | 0.00 | 0.00 | 0.00 | 62 | 1012.2 |
| 20260504043012 | 52 | 202 | 10.0 | 13.0 | 0.00 | 0.00 | 0.00 | 62 | 1012.2 |
| 20260504042504 | 52 | 217 | 9.0 | 13.0 | 0.00 | 0.00 | 0.00 | 63 | 1012.3 |
| 20260504042004 | 52 | 192 | 9.0 | 13.0 | 0.00 | 0.00 | 0.00 | 64 | 1012.3 |
| 20260504041515 | 52 | 190 | 9.0 | 13.0 | 0.00 | 0.00 | 0.00 | 65 | 1012.4 |
| 20260504041003 | 51 | 199 | 9.0 | 11.0 | 0.00 | 0.00 | 0.00 | 65 | 1012.4 |
| 20260504040504 | 51 | 190 | 9.0 | 11.0 | 0.00 | 0.00 | 0.00 | 65 | 1012.4 |
| 20260504040013 | 51 | 189 | 8.0 | 10.0 | 0.00 | 0.00 | 0.00 | 66 | 1012.6 |
| 20260504035503 | 51 | 195 | 8.0 | 10.0 | 0.00 | 0.00 | 0.00 | 67 | 1012.6 |
| 20260504035005 | 51 | 182 | 8.0 | 10.0 | 0.00 | 0.00 | 0.00 | 69 | 1012.7 |
| 20260504034523 | 51 | 182 | 6.0 | 8.0 | 0.00 | 0.00 | 0.00 | 70 | 1012.8 |
| 20260504034003 | 51 | 184 | 6.0 | 8.0 | 0.00 | 0.00 | 0.00 | 70 | 1012.8 |
| 20260504033506 | 51 | 186 | 6.0 | 8.0 | 0.00 | 0.00 | 0.00 | 71 | 1012.8 |
| 20260504033028 | 50 | 182 | 6.0 | 8.0 | 0.00 | 0.00 | 0.00 | 72 | 1012.9 |
| 20260504032505 | 50 | 176 | 5.0 | 8.0 | 0.00 | 0.00 | 0.00 | 72 | 1012.9 |
| 20260504032005 | 51 | 180 | 5.0 | 8.0 | 0.00 | 0.00 | 0.00 | 71 | 1012.9 |
| 20260504031515 | 51 | 179 | 5.0 | 8.0 | 0.00 | 0.00 | 0.00 | 69 | 1012.9 |
| 20260504031005 | 51 | 161 | 5.0 | 9.0 | 0.00 | 0.00 | 0.00 | 69 | 1013.0 |
| 20260504030507 | 50 | 181 | 6.0 | 9.0 | 0.00 | 0.00 | 0.00 | 69 | 1013.0 |
| 20260504030017 | 50 | 176 | 6.0 | 9.0 | 0.00 | 0.00 | 0.00 | 71 | 1013.1 |
| 20260504025504 | 49 | 165 | 5.0 | 7.0 | 0.00 | 0.00 | 0.00 | 75 | 1013.3 |
| 20260504025004 | 49 | 178 | 4.0 | 6.0 | 0.00 | 0.00 | 0.00 | 74 | 1013.4 |
| 20260504024535 | 50 | 181 | 4.0 | 6.0 | 0.00 | 0.00 | 0.00 | 75 | 1013.3 |
| 20260504024008 | 50 | 163 | 4.0 | 6.0 | 0.00 | 0.00 | 0.00 | 72 | 1013.3 |
| 20260504023504 | 50 | 166 | 3.0 | 7.0 | 0.00 | 0.00 | 0.00 | 70 | 1013.2 |
| 20260504023018 | 50 | 155 | 2.0 | 7.0 | 0.00 | 0.00 | 0.00 | 70 | 1013.3 |
| 20260504022504 | 50 | 140 | 3.0 | 7.0 | 0.00 | 0.00 | 0.00 | 70 | 1013.3 |
| 20260504022007 | 50 | 167 | 3.0 | 6.0 | 0.00 | 0.00 | 0.00 | 71 | 1013.3 |
| 20260504021518 | 50 | 140 | 3.0 | 5.0 | 0.00 | 0.00 | 0.00 | 71 | 1013.3 |
| 20260504021004 | 50 | 147 | 2.0 | 4.0 | 0.00 | 0.00 | 0.00 | 69 | 1013.3 |
| 20260504020506 | 50 | 137 | 2.0 | 5.0 | 0.00 | 0.00 | 0.00 | 69 | 1013.3 |
| 20260504020017 | 50 | 140 | 2.0 | 5.0 | 0.00 | 0.00 | 0.00 | 69 | 1013.3 |
| 20260504015507 | 50 | 117 | 4.0 | 7.0 | 0.00 | 0.00 | 0.00 | 68 | 1013.2 |
| 20260504015005 | 50 | 153 | 3.0 | 7.0 | 0.00 | 0.00 | 0.00 | 69 | 1013.2 |
| 20260504014517 | 50 | 141 | 3.0 | 7.0 | 0.00 | 0.00 | 0.00 | 69 | 1013.2 |
| 20260504014007 | 50 | 135 | 3.0 | 7.0 | 0.00 | 0.00 | 0.00 | 69 | 1013.3 |
| 20260504013502 | 50 | 128 | 3.0 | 6.0 | 0.00 | 0.00 | 0.00 | 70 | 1013.3 |
| 20260504013015 | 50 | 132 | 3.0 | 5.0 | 0.00 | 0.00 | 0.00 | 71 | 1013.3 |
| 20260504012503 | 50 | 135 | 2.0 | 5.0 | 0.00 | 0.00 | 0.00 | 72 | 1013.4 |
| 20260504012003 | 50 | 135 | 3.0 | 6.0 | 0.00 | 0.00 | 0.00 | 72 | 1013.4 |
| 20260504011503 | 50 | 150 | 2.0 | 6.0 | 0.00 | 0.00 | 0.00 | 71 | 1013.3 |
| 20260504011003 | 50 | 132 | 2.0 | 4.0 | 0.00 | 0.00 | 0.00 | 1013.3 | |
| 20260504010505 | 50 | 128 | 2.0 | 3.0 | 0.00 | 0.00 | 0.00 | 1013.3 | |
| 20260504010003 | 50 | 107 | 2.0 | 3.0 | 0.00 | 0.00 | 0.00 | 73 | 1013.2 |
| 20260504005504 | 50 | 118 | 2.0 | 3.0 | 0.00 | 0.00 | 0.00 | 73 | 1013.2 |
| 20260504005003 | 50 | 112 | 1.0 | 3.0 | 0.00 | 0.00 | 0.00 | 72 | 1013.2 |
| 20260504004533 | 50 | 105 | 1.0 | 3.0 | 0.00 | 0.00 | 0.00 | 72 | 1013.2 |
| 20260504004003 | 50 | 96 | 2.0 | 3.0 | 0.00 | 0.00 | 0.00 | 72 | 1013.2 |
| 20260504003507 | 50 | 103 | 1.0 | 4.0 | 0.00 | 0.00 | 0.00 | 71 | 1013.2 |
| 20260504003021 | 50 | 101 | 2.0 | 4.0 | 0.00 | 0.00 | 0.00 | 71 | 1013.3 |
| 20260504002504 | 50 | 77 | 2.0 | 5.0 | 0.00 | 0.00 | 0.00 | 71 | 1013.2 |
| 20260504002002 | 50 | 119 | 2.0 | 5.0 | 0.00 | 0.00 | 0.00 | 70 | 1013.1 |
| 20260504001503 | 50 | 59 | 3.0 | 6.0 | 0.00 | 0.00 | 0.00 | 70 | 1013.1 |
| 20260504001005 | 50 | 100 | 2.0 | 6.0 | 0.00 | 0.00 | 0.00 | 71 | 1013.0 |
| 20260504000502 | 50 | 84 | 2.0 | 6.0 | 0.00 | 0.00 | 0.00 | 69 | 1013.0 |
| 20260504000009 | 50 | 88 | 3.0 | 8.0 | 0.00 | 0.00 | 0.00 | 71 | 1012.9 |
| 20260503235504 | 50 | 78 | 4.0 | 8.0 | 0.00 | 0.00 | 0.00 | 70 | 1012.9 |
| 20260503235003 | 50 | 100 | 3.0 | 6.0 | 0.00 | 0.00 | 0.00 | 71 | 1012.9 |
| 20260503234511 | 50 | 90 | 2.0 | 6.0 | 0.00 | 0.00 | 0.00 | 71 | 1013.0 |
| 20260503234003 | 50 | 100 | 3.0 | 6.0 | 0.00 | 0.00 | 0.00 | 71 | 1013.0 |
| 20260503233506 | 50 | 88 | 2.0 | 6.0 | 0.00 | 0.00 | 0.00 | 71 | 1013.2 |